Погода Каменское

Погода Каменское : погода сейчас, прогноз погоды и архив. Всё, что Вы хотите узнать о погоде Каменское!

Поиск расширенной информации на нашем сайте:

Другие новости

Новости СМИ2

Главная страница сайта

Новости сайта

03.07.2017

Напоминаем, что на нашем специализированном сайте Метеоцентр.Азия вы можете получить высокодетализированные автоматические прогнозы погоды по пунктам России, СНГ и мира в авиационном формате (включающие направление и скорость ветра, видимость, явления погоды, количество и форму облачности, нижнюю и верхнюю границу облачности).


Погода Каменское - сегодня

Время (UTC), дата Ветер
(°,м/с) 
Видим.   Явления Облачность Т
(°С)
Тd
(°С)
f(%) Тe
(°С)
Pmin
(гПа)
dP
(гПа)
Po
(мм)
O2
(г/м3)
Тmin Tmax R s Состояние
почвы
00 19.05.18 150 (ЮВ) 20000 м    3/0 средняя 
[Ac trans]
+3.4 -1.3 71 +3  1019  -0.7  761  303           
03 19.05.18 120 (ЮВ) 20000 м    1/0 верхняя 
[Ci fib]
+6.4 -0.7 60 +6  1017.9  -1.1  760  299           
06 19.05.18 140 (ЮВ) 20000 м    3/0 средняя 
[Ac trans]
+6.5 -0.7 60 +7  1016.9  -0.9  759  299           
12 19.05.18 240 (ЮЗ) 20000 м    3/0 средняя 
[Ac trans]
+0.8 -1.5 85 -3  1017.1  0.3  759  305           
15 19.05.18 280 (З) н/о    н/о 
-1.8 -2.9 92 -3  1017.3  0.2  759  308           
18 19.05.18 080 (В) н/о    н/о 
-2.2 -3 94 -4  1018.5  1.1  760  309           
21 19.05.18 090 (В) 2000 м  дымка  10/10 100 м 
[St]
-1 -1.7 95 -3  1019  0.6  760  308  -2.5      14  неравномерный
мокрый или
старый снег
100% 
00 20.05.18 090 (В) 20000 м    10/10 300 м 
[St]
+1.3 -1.2 83 +1  1018.9  760  305           
03 20.05.18 140 (ЮВ) 20000 м    4/0 верхняя 
[Ci fib]
+3.3 -0.9 74 +3  1018.6  -0.3  760  303           
06 20.05.18 140 (ЮВ) 20000 м    3/0 средняя 
[Ac trans]
+4.4 -1 68 +5  1018  -0.6  760  301           
12 20.05.18 240 (ЮЗ) 20000 м    3/1 1000 м средняя 
[Sc|Ac trans]
+0.9 -2 81 -1  1017.7  0.2  760  305           
15 20.05.18 240 (ЮЗ) н/о    н/о 
-0.6 -2.3 88 -4  1017.4  -0.3  759  307           
18 20.05.18 250 (З) н/о    н/о 
-0.2 -1.4 92 -3  1017.1  -0.3  759  306           
21 20.05.18 270 (З) 20000 м    3/3 200 м 
[St]
+3.9 -0.5 73 +2  1016.3  -0.8  758  301  -1.6      11  мокрый или
старый снег
50-90% 
00 21.05.18 240 (ЮЗ) 20000 м    3/0 средняя 
[Ac trans]
+7.7 -0.4 56 +6  1014.8  -1.4  757  297           
03 21.05.18 180 (Ю) 20000 м    3/3 1000 м 
[Sc]
+10.2 -0.9 46 +10  1012.7  -2  756  294           
06 21.05.18 110 (В) 20000 м    3/3 1000 м 
[Sc]
+9.6 -1 48 +11  1011.4  -1.3  755  294           
12 21.05.18 310 (СЗ) 20000 м    ясно 
+1 -1.8 82 +2  1010.1  -0.9  754  303           
15 21.05.18 130 (ЮВ) н/о    н/о 
-0.9 -2.9 86 1008.9  -1.3  753  305           
18 21.05.18 120 (ЮВ) н/о    н/о 
+0.5 -2.6 80 1008.1  -0.7  752  303           
21 21.05.18 090 (В) 20000 м    9/9 1000 м 
[Sc]
+3.9 -1.2 69 +2  1007.5  -0.6  752  299  -1.6      мокрый или
старый снег
50-90% 
00 22.05.18 080 (В) 20000 м    6/0 средняя, верхняя 
[Ac trans|Ci fib]
+5.7 -0.7 63 +4  1006.5  -0.9  751  297           
03 22.05.18 080 (В) 20000 м    9/0 средняя, верхняя 
[Ac As|Cs]
+7 -0.1 61 +5  1004.8  -1.7  750  295           
15 22.05.18 070 (В) 7-11{15}  н/о    н/о 
+1.8 -1.9 76 -2  1003.9  -0.9  749  300           
18 22.05.18 050 (СВ) 8-16{18}  н/о    н/о 
+1.8 -2.2 75 -2  1003.3  -0.6  749  300           
Время (UTC), дата Ветер
(°,м/с) 
Видим.   Явления Облачность Т
(°С)
Тd
(°С)
f(%) Тe
(°С)
Pmin
(гПа)
dP
(гПа)
Po
(мм)
O2
(г/м3)
Тmin Tmax R s Состояние
почвы

Для получения пояснительной информации подведите курсор к названию столбца.

ПОГОДА Каменское - архив

Всё, что Вы хотите узнать о погоде Каменское - удобно и подробно!

Выберите нужную дату (начиная с 1 января 2015* года) и нажмите кнопку "Найти".
Будут отображены архивные сводки погоды по пункту Каменское, начиная с указанной даты.


Отображать данные в формате CSV (для использования в таблицах Excel)


Внимание! Наш архив погоды предназначен исключительно для личного некоммерческого использования в познавательных целях. Если Вам необходимы официальные справки о состоянии погоды (для производственных, юридических, коммерческих и т.п. целей), обращайтесь в органы Росгидромета.

*Примечание: данная дата относится к архиву по метеостанциям СССР (Россия, СНГ, Балтия).
Архив по метеостанциям Зарубежной Европы и Азии (кроме Китая) хранится 10 дней, по другим регионам земного шара (Китай, Африка, Америка, Австралия, Океания) - 1 день.

Каменское - район местоположения метеостанции


Название, широта, долгота, высота метеостанции:
Каменское 62.43°ш. 166.08°д. 10 м над ур. моря [Российская Федерация]

Дополнительная информация

В oтличие oт бoльшинства пoгoдных сайтoв мы публикуем пoдрoбную метеoинфoрмацию в детальнoм прoфессиoнальнoм фoрмате.

Характеристики температуры и влажнoсти вoздуха измеряются на высoте 2 м в тени вдали oт зданий и деревьев.
Скoрoсть ветра измеряется на высoте 10 м (на урoвне рoста челoвека скoрoсть ветра ниже в 1.5-2 раза). Если метеoстанция нахoдится в гoрoде или в лесу, тo скoрoсть ветра занижена на 2-4 м/с пo сравнению с oткрытым местoм. Скoрoсть ветра над акватoриями крупных рек и oзёр, а также на вершинах хoлмoв на 2-5 м/с выше, чем в oбычных услoвиях.
Атмoсфернoе давление в разных тoчках местнoсти мoжет значительнo oтличаться oт давления на метеoстанции, в зависимoсти oт услoвий рельефа (при пoдъёме на 10 м давление пoнижается примернo на 1 мм рт.ст.).